Home   Weather   North Fairfield   Past weeks
Flag for USA

Past Weather in North Fairfield, Maine, USA — Yesterday and Last 2 Weeks

Now
38 °F

Clear.


Feels Like: 31 °F
Forecast: 53 / 24 °F
Wind: 10 mph from Southwest

Location: Augusta State Airport

Current Time: Dec 15, 2019 at 7:51:54 am

Latest Report: Dec 15, 2019 at 6:53 am


Visibility: 10 mi

Pressure: 29.17 "Hg

Humidity: 76%

Dew Point: 31 °F

Location of North FairfieldLocation

Past Weather in North Fairfield — Graph

°F

North Fairfield Temperature Yesterday

Maximum temperature yesterday: 53 °F (at 10:53 pm)
Minimum temperature yesterday: 34 °F (at 12:35 am)
Average temperature yesterday: 46 °F

High & Low Weather Summary for the Past Weeks

 TemperatureHumidityPressure
High53 °F (Dec 14, 10:53 pm)100% (Dec 9, 12:53 pm)30.71 "Hg (Dec 9, 12:53 pm)
Low13 °F (Nov 30, 5:53 am)30% (Dec 12, 1:53 pm)29.00 "Hg (Dec 15, 12:32 am)
Average31 °F74%29.87 "Hg
* Reported Nov 30 5:53 am — Dec 15 5:53 am, North Fairfield. Weather by CustomWeather, © 2019

Note: Actual official high and low records may vary slightly from our data, if they occured in-between our weather recording intervals... More about our weather records

North Fairfield Weather History for the Previous 24 Hours

Scroll right to see more
 ConditionsComfort  
Time TempWeatherWind HumidityBarometerVisibility
5:53 am
Sun, Dec 15
39 °FClear.10 mph76%29.14 "Hg10 mi
5:09 am40 °FPassing clouds.9 mph77%29.10 "Hg10 mi
4:53 am40 °FOvercast.12 mph77%29.10 "Hg10 mi
4:37 am41 °FMostly cloudy.10 mph76%29.09 "Hg10 mi
3:53 am41 °FPassing clouds.13 mph80%29.05 "Hg10 mi
3:25 am44 °FPassing clouds.15 mph79%29.03 "Hg10 mi
2:53 am49 °FPartly cloudy.13 mph80%29.01 "Hg10 mi
2:32 am49 °FOvercast.10 mph97%29.01 "Hg10 mi
1:53 am50 °FMostly cloudy.9 mph96%29.01 "Hg10 mi
1:34 am50 °FPassing clouds.9 mph100%29.00 "Hg10 mi
12:53 am51 °FLow clouds.15 mph100%29.00 "Hg10 mi
12:32 am52 °FLow clouds.17 mph100%29.00 "Hg10 mi
11:53 pm
Sat, Dec 14
53 °FLow clouds.12 mph100%29.01 "Hg8 mi
10:53 pm53 °FLow clouds.7 mph100%29.03 "Hg7 mi
10:29 pm52 °FLight rain. Fog.12 mph100%29.05 "Hg1 mi
9:53 pm52 °FLight rain. Fog.14 mph100%29.07 "Hg0 mi
9:33 pm52 °FLight rain. Fog.14 mph100%29.09 "Hg1 mi
8:53 pm50 °FFog.10 mph100%29.12 "Hg0 mi
7:53 pm46 °FFog.3 mph100%29.17 "Hg0 mi
6:53 pm45 °FLight rain. Fog.5 mph100%29.21 "Hg1 mi
5:53 pm43 °FFog.3 mph100%29.25 "Hg0 mi
4:53 pm44 °FFog.No wind100%29.28 "Hg0 mi
3:53 pm45 °FFog.6 mph100%29.31 "Hg0 mi
3:30 pm47 °FFog.7 mph100%29.32 "Hg0 mi
2:53 pm48 °FLight rain. Fog.7 mph100%29.31 "Hg1 mi
2:25 pm48 °FLight rain. Fog.9 mph100%29.32 "Hg1 mi
2:11 pm48 °FLight rain. Fog.8 mph100%29.33 "Hg2 mi
1:53 pm48 °FLight rain. Fog.8 mph100%29.34 "Hg2 mi
1:16 pm48 °FLight rain. Fog.9 mph100%29.36 "Hg1 mi
1:04 pm48 °FLight rain. Fog.9 mph100%29.37 "Hg2 mi
12:30 pm49 °FRain. Fog.8 mph97%29.42 "Hg1 mi
12:21 pm49 °FLight rain. Fog.8 mph97%29.44 "Hg2 mi
11:53 am48 °FRain. Fog.8 mph100%29.49 "Hg2 mi
11:36 am48 °FLight rain. Fog.7 mph96%29.49 "Hg3 mi
10:53 am48 °FLight rain. Fog.16 mph93%29.58 "Hg3 mi
10:33 am48 °FLight rain. Fog.17 mph93%29.61 "Hg2 mi
10:00 am48 °FRain. Fog.18 mph93%29.66 "Hg2 mi
9:29 am47 °FRain. Fog.18 mph93%29.69 "Hg2 mi
8:57 am47 °FRain. Fog.12 mph93%29.73 "Hg2 mi
8:24 am46 °FRain. Fog.12 mph96%29.76 "Hg2 mi
8:04 am46 °FHeavy rain. Fog.14 mph96%29.79 "Hg2 mi
7:53 am46 °FRain. Fog.10 mph96%29.82 "Hg3 mi
7:08 am46 °FLight rain. Fog.15 mph96%29.86 "Hg4 mi
Weather by CustomWeather, © 2019

See weather overview

Advertising